Lapse_Rate
7.2 7.5 7.4 7.0 7.2 7.4 7.5 7.1 7.1 7.1 7.2 7.3 7.3 7.5 7.4 7.6 6.9 6.6 6.0 6.4 5.8 7.0 6.7 4.9 5.6 5.4 5.3 5.0 4.3 3.2 6.5 6.5 6.5 6.5 6.5 5.4 6.4 5.3 4.4 5.6 4.8 3.5 4.1 2.6 2.7
7.9 7.3 6.7 7.1 7.3 7.0 7.3 6.9 6.9 6.8 7.2 7.0 7.2 7.1 7.1 7.1 6.3 6.5 7.8 7.8 7.6 8.3 6.2 5.6 5.3 5.2 5.2 4.9 4.3 5.8 6.5 6.5 6.4 6.4 6.5 5.9 5.8 5.2 5.9 5.8 5.5 4.1 1.3 1.3 2.2
7.6 7.6 7.2 7.2 6.6 6.4 6.5 6.7 6.8 6.6 6.8 7.3 6.9 7.1 7.1 6.9 6.5 7.0 6.0 7.0 7.4 7.9 6.5 5.8 5.3 5.6 5.6 5.2 5.3 5.9 6.5 6.5 6.3 5.8 5.6 5.7 5.7 5.1 5.9 6.5 5.2 4.8 1.1 1.5 2.3
7.6 7.1 7.0 6.8 6.7 6.5 6.4 6.6 6.4 6.6 6.8 6.7 6.2 6.7 6.1 6.5 6.5 5.1 6.4 5.9 7.3 6.5 5.8 6.0 5.6 5.7 6.2 6.5 5.4 6.5 6.2 6.1 5.7 5.1 5.6 6.1 4.9 5.5 5.1 5.3 2.5 2.9 0.7 0.9 1.8
7.2 7.6 6.9 6.4 6.7 6.7 7.2 6.9 6.4 6.7 6.6 6.7 7.1 6.6 6.2 5.9 5.1 4.7 5.3 5.5 5.3 6.1 6.0 5.9 6.1 5.2 6.5 6.0 5.7 6.5 6.3 5.5 5.0 4.5 4.4 4.4 5.5 5.7 5.3 2.6 0.5 0.2 0.7 1.1 1.6
7.2 6.9 6.9 6.3 6.2 6.3 6.3 7.1 7.0 6.9 7.1 7.5 7.3 6.8 6.5 6.4 5.8 5.4 4.4 4.1 5.4 6.2 6.3 5.9 5.7 4.5 4.8 6.0 6.4 5.4 5.5 5.8 4.8 5.1 4.2 6.0 6.0 5.4 5.1 2.0 1.3 1.6 1.3 1.5 1.9
6.8 6.5 6.6 6.6 6.2 5.5 5.9 7.1 6.0 5.9 6.1 6.6 7.3 6.6 5.9 6.0 6.5 6.3 6.7 3.9 7.0 5.7 6.2 5.6 5.3 5.6 4.0 6.4 4.3 4.9 6.5 6.5 5.9 5.3 6.2 4.3 6.5 6.5 4.9 3.4 2.6 2.5 1.9 1.9 2.3
5.9 6.0 5.8 6.0 6.4 5.9 5.9 6.2 5.9 5.9 6.2 6.4 7.0 6.1 6.8 8.1 8.2 7.0 6.7 5.1 6.5 5.3 6.0 6.1 4.8 3.7 4.9 4.0 5.0 6.5 6.5 6.5 6.5 6.0 6.0 6.2 6.5 6.4 4.2 4.1 3.6 3.0 2.8 2.6 2.7
5.5 5.2 5.3 5.1 5.5 5.7 5.0 5.0 5.9 6.6 6.2 7.1 6.1 6.0 6.6 8.5 7.9 7.3 6.2 6.8 5.5 5.6 5.8 5.5 4.1 4.3 5.8 6.5 6.5 6.5 6.5 6.5 6.5 6.1 6.5 6.5 6.5 6.4 5.0 4.5 4.4 3.6 3.3 3.2 2.7
5.0 5.1 4.7 4.6 4.4 4.0 3.9 5.2 5.5 5.8 5.2 5.8 5.9 6.3 6.9 6.8 6.9 6.6 6.2 6.3 6.6 5.5 5.9 5.3 3.1 6.5 6.5 6.5 6.5 6.5 6.5 6.5 6.5 6.5 6.5 6.5 6.5 6.5 5.2 5.3 4.7 4.2 3.7 2.8 2.3
4.6 4.4 4.2 3.8 4.0 4.1 2.5 2.9 3.5 4.7 4.6 5.7 5.5 6.1 6.3 5.9 6.3 5.7 5.7 6.3 5.5 3.8 6.5 5.4 6.5 6.5 6.5 6.5 6.5 6.5 6.5 6.5 6.5 6.5 6.5 6.5 6.5 6.5 5.8 5.2 5.2 4.1 3.1 2.6 2.0
4.1 3.9 4.0 3.8 3.9 4.9 1.6 1.8 4.3 4.1 5.3 5.3 4.9 5.9 5.8 5.4 5.9 5.3 4.7 5.5 5.4 6.5 6.4 6.5 6.5 6.5 6.5 6.5 6.5 6.5 6.5 6.5 6.5 6.5 6.5 6.5 6.5 6.5 6.3 6.0 4.8 4.1 3.6 2.6 2.8
3.6 3.5 3.4 3.1 3.6 1.9 1.6 2.8 2.7 3.2 5.7 5.3 5.0 5.1 5.3 4.4 5.5 5.0 4.7 4.2 6.3 6.5 6.5 6.5 6.5 6.4 6.5 6.5 6.5 6.5 6.5 6.5 6.5 6.5 6.5 6.5 6.5 6.5 6.4 5.9 5.4 4.7 4.1 3.7 3.1
2.9 3.0 3.0 3.1 3.4 1.5 2.2 1.8 1.9 2.5 6.5 6.5 6.0 5.8 5.1 5.1 6.0 5.2 3.4 4.3 6.1 6.5 6.5 6.5 6.3 6.5 6.5 6.5 6.5 6.5 6.5 6.5 6.5 6.5 6.5 6.5 6.5 6.5 6.5 6.5 6.3 5.5 4.3 4.1 3.4
2.4 2.3 2.5 3.3 2.2 2.6 2.8 1.5 2.2 3.5 6.5 6.5 6.0 6.2 5.2 5.3 6.1 5.4 4.3 3.0 6.5 6.5 6.5 6.5 6.5 6.5 6.5 6.5 6.5 6.5 6.5 6.5 6.5 6.5 6.5 6.5 6.5 6.5 6.5 6.5 6.5 5.8 4.8 4.4 3.9
2.1 2.0 1.8 1.4 0.6 1.7 0.9 1.5 2.8 6.5 6.5 6.5 5.9 6.4 6.5 5.5 5.7 4.9 4.6 2.8 4.7 6.5 6.5 6.5 6.1 6.4 6.5 6.5 6.5 6.5 6.5 6.5 6.5 6.5 6.5 6.5 6.5 6.5 6.5 6.5 6.5 5.8 4.7 4.3 3.8
2.0 2.0 1.9 1.4 2.9 1.2 0.7 2.4 6.5 6.5 6.5 6.5 6.5 6.5 6.5 6.5 6.5 6.5 6.5 6.5 6.5 6.5 6.5 6.5 6.5 6.4 6.0 6.5 6.5 6.5 6.5 6.5 6.5 6.5 6.5 6.5 6.5 6.5 6.5 6.5 6.4 6.0 4.3 4.0 3.7
1.7 1.6 1.4 1.8 1.1 1.0 1.6 6.0 6.5 6.5 6.5 6.5 6.5 6.5 6.5 6.5 6.5 6.5 6.5 6.5 6.5 6.5 6.5 6.5 6.5 6.5 6.5 6.5 6.5 6.5 6.5 6.5 6.5 6.5 6.5 6.5 6.5 6.5 6.5 5.9 5.6 3.8 3.4 3.6 3.2
1.4 -0.3 0.8 1.0 1.3 0.1 2.8 6.5 6.5 6.5 6.5 6.5 6.5 6.5 6.5 6.5 6.5 6.5 6.5 6.5 6.5 6.5 6.5 6.5 6.5 6.5 6.5 6.5 6.5 6.5 6.5 6.5 6.5 6.5 6.5 6.5 6.5 6.5 6.5 6.5 5.8 4.7 3.8 3.7 3.0
-0.3 0.5 1.7 0.7 0.8 0.5 5.4 6.5 6.5 6.3 6.5 6.5 6.5 6.5 6.5 6.5 6.5 6.5 6.5 6.5 6.5 6.4 6.3 6.5 6.5 6.5 6.5 6.4 6.2 6.5 6.5 6.5 6.5 6.5 6.5 6.5 6.5 6.5 6.5 6.5 6.5 6.2 4.6 3.5 3.0
-0.5 2.4 2.0 0.3 0.1 1.1 6.5 6.5 6.5 6.1 6.3 6.5 6.5 6.5 6.5 6.5 6.5 6.5 6.5 6.5 6.5 6.5 6.2 6.5 6.5 6.5 6.5 6.5 6.5 6.5 6.5 6.5 6.5 6.5 6.5 6.5 6.5 6.5 6.5 6.5 6.5 5.8 3.6 2.9 2.4
-0.4 6.2 0.8 -0.2 3.6 4.6 6.5 6.5 6.1 6.2 5.2 6.4 6.4 6.5 6.5 6.5 6.5 6.5 6.5 6.5 5.2 6.2 6.5 6.5 6.5 6.5 6.5 6.5 6.5 6.5 6.5 6.5 6.5 6.5 6.5 6.5 6.5 6.5 6.5 6.2 5.2 4.3 3.0 2.2 1.9
0.7 0.8 -0.1 0.7 6.5 6.5 6.4 6.5 6.1 6.4 6.5 6.5 6.5 6.5 6.5 6.5 6.5 6.5 6.5 6.3 5.1 6.4 6.5 6.5 6.5 6.5 6.5 6.5 6.5 6.5 6.5 6.5 6.5 6.5 6.5 6.5 6.5 6.5 5.9 6.0 4.5 4.1 2.8 2.4 1.9
0.4 6.5 1.3 -1.0 2.0 6.2 6.5 6.5 6.5 5.9 6.3 6.2 6.5 6.2 6.5 6.5 6.5 6.5 6.5 6.4 5.5 6.1 6.2 5.9 6.5 6.5 6.5 6.5 6.5 6.5 6.5 6.5 6.5 6.5 6.5 6.5 6.5 6.5 6.5 6.5 5.3 3.7 2.6 1.9 1.9
-1.0 5.1 4.0 6.5 5.7 6.2 6.4 6.5 6.5 6.5 6.2 5.4 6.5 6.5 6.5 6.5 6.5 6.5 6.5 6.5 6.1 5.4 5.7 6.5 6.5 6.5 6.5 6.5 6.5 6.5 6.5 6.5 6.5 6.5 6.5 6.5 6.5 6.5 6.5 6.5 4.2 2.4 2.2 2.2 2.1
2.1 3.7 1.6 3.8 4.2 6.4 6.5 6.5 6.5 6.5 6.5 6.5 6.5 6.5 6.5 6.5 6.5 6.5 6.5 6.5 6.5 6.2 6.5 6.4 6.5 6.5 6.5 6.5 6.5 6.5 6.5 6.5 6.5 6.5 6.5 6.5 6.5 6.6 5.4 4.3 3.9 3.1 2.6 2.9 2.4
-1.9 -0.5 2.6 5.3 5.8 6.5 6.5 6.5 6.5 6.4 6.2 6.0 6.4 6.5 6.5 6.5 5.8 5.1 4.0 3.8 5.5 6.5 6.5 6.5 6.5 6.5 6.5 6.5 6.5 6.5 6.5 6.5 6.5 6.5 6.5 6.5 6.5 6.3 6.5 5.7 4.0 2.2 2.2 2.3 1.9
Wind_Speed
26 24 21 16 16 15 13 15 17 20 15 18 23 24 21 16 10 10 7 6 6 7 13 5 4 3 2 3 3 3 3 4 7 7 5 5 4 2 1 6 1 1 2 2 14
25 25 24 22 13 13 11 12 13 10 8 5 12 19 17 11 5 10 0 8 12 7 5 7 5 5 3 3 2 3 3 8 4 3 4 6 4 6 4 4 2 2 3 9 14
24 25 26 17 7 9 8 9 10 7 5 4 7 12 13 15 6 4 3 2 11 9 5 5 5 4 4 3 3 3 5 4 2 1 2 6 4 3 9 2 4 5 8 12 12
25 26 23 21 15 9 3 6 7 8 4 14 18 19 25 7 8 3 7 3 12 4 5 4 4 4 4 6 2 5 2 1 0 2 4 6 6 4 2 2 3 2 15 13 13
24 22 23 24 24 15 11 10 10 7 13 12 15 17 6 4 3 5 1 6 14 4 4 5 5 5 7 6 4 4 3 3 2 5 5 4 4 6 3 3 4 10 11 13 12
23 21 18 17 23 24 18 15 16 9 12 13 9 7 2 5 4 10 5 9 11 4 4 5 7 5 5 4 1 4 6 4 5 4 3 5 3 3 1 3 7 7 9 10 10
20 23 20 11 13 21 15 11 13 12 11 13 12 4 5 3 5 9 7 4 7 6 3 5 4 1 6 6 4 6 6 3 6 5 2 0 4 3 2 3 6 5 5 6 7
19 20 20 17 7 3 11 10 13 11 10 3 14 5 3 5 10 1 2 5 5 4 3 3 5 5 2 4 5 4 5 5 3 5 2 1 3 0 3 5 6 5 4 5 6
19 20 18 18 15 11 8 4 6 7 11 8 1 1 4 7 4 8 6 5 5 3 2 2 4 4 2 5 5 6 5 4 2 3 1 2 3 1 2 4 5 5 5 4 4
18 18 21 19 16 16 11 8 9 6 6 2 3 1 4 4 5 6 6 6 4 5 4 3 4 4 4 3 7 6 7 4 4 2 3 2 3 2 2 2 5 3 3 4 5
17 19 20 22 19 15 4 2 5 3 4 1 6 2 2 3 2 2 2 5 4 7 4 3 6 5 4 1 5 8 6 6 1 3 2 2 2 3 2 1 3 4 5 5 5
15 17 18 20 14 18 4 5 3 0 5 3 4 1 2 2 4 5 3 4 5 4 1 6 5 1 2 4 7 6 9 3 1 4 1 2 5 2 1 2 2 3 5 5 2
13 14 17 19 2 6 4 2 3 2 1 6 4 3 3 5 4 7 2 4 6 6 6 6 1 1 2 4 6 5 7 5 4 2 4 2 5 3 2 2 2 1 1 1 2
15 15 16 18 4 1 2 5 2 3 4 10 8 6 3 0 6 2 3 5 7 6 5 6 5 3 5 6 2 4 1 5 8 4 3 4 4 4 3 4 4 3 2 1 0
12 15 16 8 2 3 4 7 1 1 5 11 8 4 6 6 1 7 3 7 6 3 4 2 5 6 8 2 2 5 3 5 4 5 3 5 2 5 1 5 6 6 5 3 2
11 11 14 4 2 0 7 2 2 6 2 7 5 6 5 7 5 5 7 8 5 6 7 3 1 4 2 3 3 7 6 7 4 3 2 2 2 5 5 5 4 4 5 5 5
12 11 4 1 2 6 3 3 5 6 4 6 4 5 4 7 6 6 5 6 3 5 4 5 4 4 4 5 2 4 5 3 3 3 4 2 1 9 4 4 5 9 7 5 5
13 6 3 1 5 3 3 5 10 5 4 3 3 2 6 6 5 6 3 4 5 4 4 4 5 6 7 3 3 3 3 5 6 3 3 3 6 5 3 2 2 5 6 5 5
7 2 2 2 5 1 4 6 6 5 3 6 3 5 6 4 4 5 4 2 1 4 4 5 3 3 4 3 2 2 3 4 7 3 3 2 6 6 3 2 2 6 6 6 6
2 2 2 8 4 3 5 4 1 3 1 0 3 3 2 5 3 4 3 2 3 3 1 6 5 2 3 1 5 2 5 4 3 2 3 4 5 5 4 8 6 6 8 6 5
3 3 2 7 2 5 4 2 2 2 2 2 2 3 3 3 3 3 2 3 4 5 3 4 3 2 1 1 3 2 2 5 3 2 3 2 5 5 4 7 10 9 8 8 8
2 3 2 2 4 2 2 2 2 2 4 3 2 2 3 3 4 3 3 2 5 3 2 1 4 3 1 1 1 1 2 3 4 3 2 1 6 3 5 5 8 10 9 7 5
2 1 2 3 4 2 0 2 3 5 3 3 5 5 4 3 3 2 2 2 4 3 2 0 3 3 4 3 3 2 3 3 4 3 6 4 5 1 4 4 6 8 7 5 5
2 3 4 4 1 5 2 1 2 1 2 3 1 3 3 6 6 2 3 4 4 3 6 3 3 4 5 3 3 2 3 3 3 3 4 7 6 5 3 5 6 7 6 7 7
4 1 1 2 4 3 2 1 1 2 2 3 3 4 2 3 2 3 1 1 4 5 4 3 3 2 1 2 2 3 5 8 10 7 8 4 9 4 5 7 8 7 6 8 8
3 2 2 1 2 2 3 1 1 0 3 3 4 1 3 3 1 3 3 1 0 4 3 3 2 2 0 0 2 5 8 9 6 4 9 11 23 12 12 2 3 8 8 9 8
1 1 3 3 2 2 1 2 2 2 1 2 1 2 3 2 1 2 3 4 3 5 2 3 4 2 3 3 6 6 6 6 5 4 6 8 9 4 4 7 9 9 12 15 12
Wind_Direction
359 352 342 316 317 314 322 326 314 304 286 273 247 216 208 209 201 173 189 201 216 264 167 115 128 180 141 143 128 143 85 174 186 165 161 173 127 54 106 119 106 38 123 103 130
358 352 344 330 299 321 319 325 332 338 293 283 193 191 190 181 145 193 120 193 213 176 115 155 161 157 151 151 125 113 140 204 183 176 166 158 131 140 142 141 103 112 56 128 137
357 351 351 348 348 353 319 329 325 333 330 154 142 174 164 133 109 194 176 240 251 204 142 177 135 168 138 142 170 141 173 166 176 197 171 135 106 116 127 196 192 183 154 155 152
2 1 6 1 10 4 20 10 51 28 77 146 144 155 138 155 172 186 158 299 239 184 129 158 137 168 130 149 154 103 64 51 16 268 134 146 127 88 49 148 300 190 153 156 167
4 9 23 57 46 47 45 49 51 66 115 131 118 123 100 75 203 159 131 14 321 155 176 175 143 163 146 135 120 98 142 65 37 95 76 112 90 139 94 20 77 120 141 164 174
1 6 9 36 50 58 44 61 61 66 87 72 25 334 74 153 149 151 59 28 270 156 208 203 179 191 101 108 132 132 107 102 41 32 51 120 109 117 102 111 102 133 158 171 180
2 3 2 8 38 84 71 61 72 49 21 5 358 342 69 171 176 149 121 179 238 170 195 233 159 197 139 106 177 152 93 83 26 352 75 358 68 90 15 118 127 147 167 175 203
358 4 360 356 344 12 127 134 131 138 139 98 332 358 66 141 153 134 113 239 227 215 243 262 137 105 78 113 49 83 62 113 343 359 338 139 206 85 322 143 148 177 196 204 224
355 355 3 354 348 314 234 199 187 191 225 207 29 293 113 134 115 224 171 213 155 177 278 110 74 99 77 102 65 16 133 107 129 44 322 69 171 47 32 157 167 194 212 231 259
351 353 352 346 348 338 291 228 253 303 290 202 213 164 133 208 155 170 188 178 147 139 134 71 66 88 38 95 176 148 106 77 138 354 38 79 143 136 93 129 193 210 249 268 277
348 349 347 341 348 350 20 77 10 349 16 72 286 189 106 305 139 64 193 127 99 74 125 0 87 144 166 133 146 122 104 112 50 339 88 5 250 204 320 157 236 245 251 258 272
347 345 343 341 346 5 53 66 67 273 322 347 309 32 131 213 112 20 127 103 88 102 53 24 87 24 93 90 103 91 113 78 64 18 99 1 264 234 263 174 212 259 249 247 225
337 342 341 339 13 37 68 51 343 110 286 345 321 7 347 53 51 346 65 101 95 63 49 99 324 342 139 60 96 36 123 167 146 112 62 348 300 213 222 169 188 152 250 236 261
333 336 343 344 57 234 50 326 334 163 68 335 349 6 6 38 58 346 41 126 44 113 86 75 335 93 75 76 57 103 336 110 112 89 175 12 262 266 219 224 216 185 187 186 350
338 337 341 28 199 65 298 319 246 65 63 316 318 294 347 73 223 7 320 36 82 62 103 316 20 54 61 330 340 150 117 96 95 89 94 357 74 264 11 241 221 206 200 180 122
336 343 341 18 49 206 313 311 66 47 354 335 329 351 32 13 26 320 39 46 143 69 41 82 18 57 94 38 67 152 84 56 60 81 36 355 120 274 201 215 181 184 193 176 139
333 332 18 73 291 323 348 62 41 82 280 330 333 4 74 11 35 39 31 28 76 86 14 8 9 347 38 76 41 72 67 27 13 6 220 346 57 248 246 237 210 179 182 179 150
331 331 8 48 322 314 54 58 65 252 273 313 310 12 70 5 23 19 68 40 19 64 97 113 353 2 340 43 154 51 119 147 177 188 253 11 235 250 220 275 273 166 161 150 142
336 351 4 312 340 358 72 53 171 205 306 349 318 70 8 6 100 70 47 67 317 2 114 123 33 318 36 357 33 188 63 146 105 48 35 238 286 289 226 225 166 168 162 171 160
62 26 303 332 351 58 69 110 132 226 255 244 60 22 94 352 62 61 23 326 336 28 143 194 86 10 318 323 37 77 145 75 9 139 253 289 279 247 210 215 205 193 197 188 170
53 54 267 346 61 45 93 82 324 282 297 46 124 67 57 21 54 42 13 350 358 342 73 146 96 278 358 24 170 80 55 52 108 106 172 298 267 212 224 210 200 205 203 191 188
83 43 315 26 52 36 78 160 189 354 12 352 68 87 104 55 51 74 80 16 334 299 46 3 116 114 114 317 348 82 147 138 125 209 76 128 275 208 251 264 201 205 203 202 182
72 269 330 67 91 25 153 46 39 12 28 51 25 16 17 74 87 103 120 245 348 61 96 36 34 74 0 9 5 225 187 111 100 90 199 156 257 231 301 270 225 208 209 187 160
67 36 343 51 12 116 125 74 99 33 66 359 121 108 79 31 22 110 51 5 355 45 52 94 88 130 177 185 133 192 187 179 129 130 192 228 281 279 277 254 235 220 201 183 180
31 23 197 359 14 55 63 76 59 49 39 25 49 39 75 104 88 107 145 10 27 353 38 71 96 71 323 308 262 234 201 184 194 197 198 231 232 239 245 247 232 219 190 189 193
96 100 15 61 308 91 21 26 80 2 5 2 93 77 45 105 86 195 144 214 144 16 60 359 161 134 33 220 193 257 232 216 233 269 273 286 282 262 253 256 237 219 201 208 196
331 35 105 332 8 54 256 151 135 150 33 86 120 79 44 44 65 89 104 96 112 144 119 79 123 73 272 357 310 283 225 184 198 204 192 225 253 200 232 231 236 230 206 206 193